Time,TemperatureF,DewpointF,PressureIn,WindDirection,WindDirectionDegrees,WindSpeedMPH,WindSpeedGustMPH,Humidity,HourlyPrecipIn,Conditions,Clouds,dailyrainin,SoftwareType,DateUTC
2013-05-15 00:00:00,-999.9,-99.9,29.62,NNW,336,7.0,25.0,255,0.00,,,0.00,Wunderground v.1.15,2013-05-15 05:00:00,
2013-05-15 00:01:00,-999.9,-99.9,29.62,NNE,15,7.0,25.0,255,0.00,,,0.00,Wunderground v.1.15,2013-05-15 05:01:00,
2013-05-15 00:03:00,-999.9,-99.9,29.62,North,1,7.0,25.0,255,0.00,,,0.00,Wunderground v.1.15,2013-05-15 05:03:00,
2013-05-15 00:08:00,-999.9,-99.9,29.63,North,354,8.0,25.0,255,0.00,,,0.00,Wunderground v.1.15,2013-05-15 05:08:00,
2013-05-15 00:10:00,-999.9,-99.9,29.63,NNW,330,8.0,9.0,255,0.00,,,0.00,Wunderground v.1.15,2013-05-15 05:10:00,
2013-05-15 00:12:00,-999.9,-99.9,29.63,North,4,9.0,9.0,255,0.00,,,0.00,Wunderground v.1.15,2013-05-15 05:12:00,
2013-05-15 00:14:00,-999.9,-99.9,29.63,NE,34,9.0,9.0,255,0.00,,,0.00,Wunderground v.1.15,2013-05-15 05:14:00,
2013-05-15 00:16:00,-999.9,-99.9,29.63,North,359,9.0,9.0,255,0.00,,,0.00,Wunderground v.1.15,2013-05-15 05:16:00,
2013-05-15 00:20:00,-999.9,-99.9,29.63,NNW,338,9.0,10.0,255,0.00,,,0.00,Wunderground v.1.15,2013-05-15 05:20:00,
2013-05-15 00:22:00,-999.9,-99.9,29.63,North,8,9.0,10.0,255,0.00,,,0.00,Wunderground v.1.15,2013-05-15 05:22:00,
2013-05-15 00:25:00,-999.9,-99.9,29.64,North,9,9.0,16.0,255,0.00,,,0.00,Wunderground v.1.15,2013-05-15 05:25:00,
2013-05-15 00:28:00,-999.9,-99.9,29.64,North,358,11.0,16.0,255,0.00,,,0.00,Wunderground v.1.15,2013-05-15 05:28:00,
2013-05-15 00:30:00,-999.9,-99.9,29.64,North,359,11.0,14.0,255,0.00,,,0.00,Wunderground v.1.15,2013-05-15 05:30:00,
2013-05-15 00:36:00,65.8,44.4,29.64,North,3,14.0,17.0,46,0.00,,,0.00,Wunderground v.1.15,2013-05-15 05:36:00,
2013-05-15 00:38:00,65.8,45.0,29.64,NNW,345,14.0,17.0,47,0.00,,,0.00,Wunderground v.1.15,2013-05-15 05:38:00,
2013-05-15 00:42:00,65.7,45.5,29.64,North,1,14.0,20.0,48,0.00,,,0.00,Wunderground v.1.15,2013-05-15 05:42:00,
2013-05-15 00:43:00,65.7,45.5,29.64,NNW,333,14.0,20.0,48,0.00,,,0.00,Wunderground v.1.15,2013-05-15 05:43:00,
2013-05-15 00:45:00,65.8,45.6,29.64,North,9,15.0,22.0,48,0.00,,,0.00,Wunderground v.1.15,2013-05-15 05:45:00,
2013-05-15 00:48:00,65.8,46.1,29.64,NNW,334,17.0,22.0,49,0.00,,,0.00,Wunderground v.1.15,2013-05-15 05:48:00,
2013-05-15 00:52:00,65.9,46.7,29.64,North,360,19.0,22.0,50,0.00,,,0.00,Wunderground v.1.15,2013-05-15 05:52:00,
2013-05-15 00:54:00,65.8,46.6,29.64,NW,322,19.0,22.0,50,0.00,,,0.00,Wunderground v.1.15,2013-05-15 05:54:00,
2013-05-15 00:56:00,65.8,46.6,29.65,NNE,18,19.0,22.0,50,0.00,,,0.00,Wunderground v.1.15,2013-05-15 05:56:00,
2013-05-15 00:58:00,65.7,46.5,29.65,NNE,18,19.0,22.0,50,0.00,,,0.00,Wunderground v.1.15,2013-05-15 05:58:00,
2013-05-15 01:02:00,65.4,46.8,29.65,NNW,344,19.0,21.0,51,0.00,,,0.00,Wunderground v.1.15,2013-05-15 06:02:00,
2013-05-15 01:04:00,65.2,46.6,29.65,NNW,347,19.0,21.0,51,0.00,,,0.00,Wunderground v.1.15,2013-05-15 06:04:00,
2013-05-15 01:07:00,64.9,46.8,29.65,North,358,18.0,21.0,52,0.00,,,0.00,Wunderground v.1.15,2013-05-15 06:07:00,
2013-05-15 01:10:00,64.7,47.2,29.66,NE,35,17.0,17.0,53,0.00,,,0.00,Wunderground v.1.15,2013-05-15 06:10:00,
2013-05-15 01:12:00,64.5,47.0,29.66,North,6,16.0,17.0,53,0.00,,,0.00,Wunderground v.1.15,2013-05-15 06:12:00,
2013-05-15 01:14:00,64.3,46.8,29.66,NNE,18,16.0,17.0,53,0.00,,,0.00,Wunderground v.1.15,2013-05-15 06:14:00,
2013-05-15 01:18:00,64.0,47.0,29.66,NNW,337,15.0,17.0,54,0.00,,,0.00,Wunderground v.1.15,2013-05-15 06:18:00,
2013-05-15 01:20:00,63.8,46.8,29.66,North,359,15.0,15.0,54,0.00,,,0.00,Wunderground v.1.15,2013-05-15 06:20:00,
2013-05-15 01:22:00,63.7,46.7,29.66,North,352,14.0,15.0,54,0.00,,,0.00,Wunderground v.1.15,2013-05-15 06:22:00,
2013-05-15 01:24:00,63.5,46.6,29.66,NNW,345,14.0,15.0,54,0.00,,,0.00,Wunderground v.1.15,2013-05-15 06:24:00,
2013-05-15 01:27:00,63.2,46.3,29.66,NNW,345,13.0,15.0,54,0.00,,,0.00,Wunderground v.1.15,2013-05-15 06:27:00,
2013-05-15 01:29:00,63.2,46.3,29.66,North,11,13.0,14.0,54,0.00,,,0.00,Wunderground v.1.15,2013-05-15 06:29:00,
2013-05-15 01:32:00,63.1,46.2,29.67,North,354,13.0,14.0,54,0.00,,,0.00,Wunderground v.1.15,2013-05-15 06:32:00,
2013-05-15 01:34:00,63.0,46.6,29.67,NNE,13,13.0,14.0,55,0.00,,,0.00,Wunderground v.1.15,2013-05-15 06:34:00,
2013-05-15 01:38:00,-999.9,-99.9,29.67,North,5,13.0,14.0,255,0.00,,,0.00,Wunderground v.1.15,2013-05-15 06:38:00,
2013-05-15 01:40:00,-999.9,-99.9,29.67,NNE,18,14.0,14.0,255,0.00,,,0.00,Wunderground v.1.15,2013-05-15 06:40:00,
2013-05-15 01:42:00,-999.9,-99.9,29.67,NNE,20,14.0,14.0,255,0.00,,,0.00,Wunderground v.1.15,2013-05-15 06:42:00,
2013-05-15 01:44:00,-999.9,-99.9,29.67,North,10,14.0,16.0,255,0.00,,,0.00,Wunderground v.1.15,2013-05-15 06:44:00,
2013-05-15 01:49:00,-999.9,-99.9,29.67,NNE,13,13.0,14.0,255,0.00,,,0.00,Wunderground v.1.15,2013-05-15 06:49:00,
2013-05-15 01:54:00,-999.9,-99.9,29.67,NNE,21,12.0,14.0,255,0.00,,,0.00,Wunderground v.1.15,2013-05-15 06:54:00,
2013-05-15 01:58:00,-999.9,-99.9,29.67,North,4,11.0,14.0,255,0.00,,,0.00,Wunderground v.1.15,2013-05-15 06:58:00,
2013-05-15 02:02:00,-999.9,-99.9,29.67,North,9,10.0,14.0,255,0.00,,,0.00,Wunderground v.1.15,2013-05-15 07:02:00,
2013-05-15 02:04:00,-999.9,-99.9,29.67,North,355,10.0,14.0,255,0.00,,,0.00,Wunderground v.1.15,2013-05-15 07:04:00,
2013-05-15 02:08:00,-999.9,-99.9,29.67,NNE,18,9.0,14.0,255,0.00,,,0.00,Wunderground v.1.15,2013-05-15 07:08:00,
2013-05-15 02:09:00,-999.9,-99.9,29.67,NNE,12,9.0,9.0,255,0.00,,,0.00,Wunderground v.1.15,2013-05-15 07:09:00,
2013-05-15 02:14:00,-999.9,-99.9,29.67,NNE,13,7.0,14.0,255,0.00,,,0.00,Wunderground v.1.15,2013-05-15 07:14:00,
2013-05-15 02:16:00,-999.9,-99.9,29.67,North,9,7.0,14.0,255,0.00,,,0.00,Wunderground v.1.15,2013-05-15 07:16:00,
2013-05-15 02:18:00,-999.9,-99.9,29.67,NNE,21,6.0,14.0,255,0.00,,,0.00,Wunderground v.1.15,2013-05-15 07:18:00,
2013-05-15 02:22:00,-999.9,-99.9,29.67,NNE,22,7.0,14.0,255,0.00,,,0.00,Wunderground v.1.15,2013-05-15 07:22:00,
2013-05-15 02:24:00,-999.9,-99.9,29.67,NNE,19,7.0,14.0,255,0.00,,,0.00,Wunderground v.1.15,2013-05-15 07:24:00,
2013-05-15 02:28:00,-999.9,-99.9,29.67,NNE,20,7.0,14.0,255,0.00,,,0.00,Wunderground v.1.15,2013-05-15 07:28:00,
2013-05-15 02:30:00,-999.9,-99.9,29.67,NNE,32,7.0,14.0,255,0.00,,,0.00,Wunderground v.1.15,2013-05-15 07:30:00,
2013-05-15 02:32:00,-999.9,-99.9,29.67,North,6,7.0,14.0,255,0.00,,,0.00,Wunderground v.1.15,2013-05-15 07:32:00,
2013-05-15 02:36:00,-999.9,-99.9,29.67,NNE,13,8.0,14.0,255,0.00,,,0.00,Wunderground v.1.15,2013-05-15 07:36:00,
2013-05-15 02:38:00,-999.9,-99.9,29.67,North,360,8.0,14.0,255,0.00,,,0.00,Wunderground v.1.15,2013-05-15 07:38:00,
2013-05-15 02:39:00,-999.9,-99.9,29.67,North,6,8.0,14.0,255,0.00,,,0.00,Wunderground v.1.15,2013-05-15 07:39:00,
2013-05-15 02:46:00,-999.9,-99.9,29.67,North,8,7.0,14.0,255,0.00,,,0.00,Wunderground v.1.15,2013-05-15 07:46:00,
2013-05-15 02:48:00,-999.9,-99.9,29.68,North,357,7.0,14.0,255,0.00,,,0.00,Wunderground v.1.15,2013-05-15 07:48:00,
2013-05-15 02:50:00,-999.9,-99.9,29.68,North,350,7.0,7.0,255,0.00,,,0.00,Wunderground v.1.15,2013-05-15 07:50:00,
2013-05-15 02:54:00,-999.9,-99.9,29.67,North,352,5.0,14.0,255,0.00,,,0.00,Wunderground v.1.15,2013-05-15 07:54:00,
2013-05-15 02:58:00,-999.9,-99.9,29.67,North,5,4.0,14.0,255,0.00,,,0.00,Wunderground v.1.15,2013-05-15 07:58:00,
2013-05-15 03:00:00,-999.9,-99.9,29.68,NNW,338,4.0,4.0,255,0.00,,,0.00,Wunderground v.1.15,2013-05-15 08:00:00,
2013-05-15 03:03:00,-999.9,-99.9,29.68,NNW,347,3.0,14.0,255,0.00,,,0.00,Wunderground v.1.15,2013-05-15 08:03:00,
2013-05-15 03:06:00,-999.9,-99.9,29.68,NW,323,3.0,14.0,255,0.00,,,0.00,Wunderground v.1.15,2013-05-15 08:06:00,
2013-05-15 03:10:00,-999.9,-99.9,29.68,NW,323,3.0,3.0,255,0.00,,,0.00,Wunderground v.1.15,2013-05-15 08:10:00,
2013-05-15 03:12:00,-999.9,-99.9,29.68,North,359,3.0,4.0,255,0.00,,,0.00,Wunderground v.1.15,2013-05-15 08:12:00,
2013-05-15 03:18:00,-999.9,-99.9,29.68,NNW,347,2.0,14.0,255,0.00,,,0.00,Wunderground v.1.15,2013-05-15 08:18:00,
2013-05-15 03:20:00,-999.9,-99.9,29.68,NNE,13,2.0,14.0,255,0.00,,,0.00,Wunderground v.1.15,2013-05-15 08:20:00,
2013-05-15 03:23:00,-999.9,-99.9,29.68,North,1,2.0,14.0,255,0.00,,,0.00,Wunderground v.1.15,2013-05-15 08:23:00,
2013-05-15 03:26:00,-999.9,-99.9,29.68,North,1,2.0,14.0,255,0.00,,,0.00,Wunderground v.1.15,2013-05-15 08:26:00,
2013-05-15 03:30:00,-999.9,-99.9,29.68,NNE,13,2.0,14.0,255,0.00,,,0.00,Wunderground v.1.15,2013-05-15 08:30:00,
2013-05-15 03:32:00,-999.9,-99.9,29.68,NNE,28,2.0,14.0,255,0.00,,,0.00,Wunderground v.1.15,2013-05-15 08:32:00,
2013-05-15 03:34:00,-999.9,-99.9,29.69,NNE,29,2.0,14.0,255,0.00,,,0.00,Wunderground v.1.15,2013-05-15 08:34:00,
2013-05-15 03:36:00,-999.9,-99.9,29.69,North,10,2.0,14.0,255,0.00,,,0.00,Wunderground v.1.15,2013-05-15 08:36:00,
2013-05-15 03:38:00,-999.9,-99.9,29.69,NNE,23,2.0,14.0,255,0.00,,,0.00,Wunderground v.1.15,2013-05-15 08:38:00,
2013-05-15 03:40:00,-999.9,-99.9,29.69,NNE,26,2.0,14.0,255,0.00,,,0.00,Wunderground v.1.15,2013-05-15 08:40:00,
2013-05-15 03:42:00,-999.9,-99.9,29.69,NE,34,2.0,14.0,255,0.00,,,0.00,Wunderground v.1.15,2013-05-15 08:42:00,
2013-05-15 03:45:00,-999.9,-99.9,29.69,NNE,25,2.0,14.0,255,0.00,,,0.00,Wunderground v.1.15,2013-05-15 08:45:00,
2013-05-15 03:50:00,-999.9,-99.9,29.69,NNE,13,4.0,14.0,255,0.00,,,0.00,Wunderground v.1.15,2013-05-15 08:50:00,
2013-05-15 03:52:00,-999.9,-99.9,29.69,North,5,4.0,14.0,255,0.00,,,0.00,Wunderground v.1.15,2013-05-15 08:52:00,
2013-05-15 03:56:00,-999.9,-99.9,29.69,NNE,20,5.0,14.0,255,0.00,,,0.00,Wunderground v.1.15,2013-05-15 08:56:00,
2013-05-15 03:58:00,-999.9,-99.9,29.69,NE,34,4.0,14.0,255,0.00,,,0.00,Wunderground v.1.15,2013-05-15 08:58:00,
2013-05-15 04:02:00,-999.9,-99.9,29.69,NNE,13,4.0,14.0,255,0.00,,,0.00,Wunderground v.1.15,2013-05-15 09:02:00,
2013-05-15 04:04:00,-999.9,-99.9,29.69,North,11,4.0,14.0,255,0.00,,,0.00,Wunderground v.1.15,2013-05-15 09:04:00,
2013-05-15 04:05:00,-999.9,-99.9,29.69,NNE,27,4.0,14.0,255,0.00,,,0.00,Wunderground v.1.15,2013-05-15 09:05:00,
2013-05-15 04:12:00,-999.9,-99.9,29.70,NNE,25,5.0,14.0,255,0.00,,,0.00,Wunderground v.1.15,2013-05-15 09:12:00,
2013-05-15 04:14:00,-999.9,-99.9,29.70,NNE,18,5.0,14.0,255,0.00,,,0.00,Wunderground v.1.15,2013-05-15 09:14:00,
2013-05-15 04:16:00,-999.9,-99.9,29.70,ENE,58,5.0,14.0,255,0.00,,,0.00,Wunderground v.1.15,2013-05-15 09:16:00,
2013-05-15 04:22:00,-999.9,-99.9,29.70,NNE,18,5.0,7.0,255,0.00,,,0.00,Wunderground v.1.15,2013-05-15 09:22:00,
2013-05-15 04:24:00,-999.9,-99.9,29.70,NNE,18,5.0,14.0,255,0.00,,,0.00,Wunderground v.1.15,2013-05-15 09:24:00,
2013-05-15 04:27:00,-999.9,-99.9,29.70,NNE,28,6.0,14.0,255,0.00,,,0.00,Wunderground v.1.15,2013-05-15 09:27:00,
2013-05-15 04:30:00,-999.9,-99.9,29.70,North,8,7.0,7.0,255,0.00,,,0.00,Wunderground v.1.15,2013-05-15 09:30:00,
2013-05-15 04:32:00,-999.9,-99.9,29.70,NNE,26,7.0,14.0,255,0.00,,,0.00,Wunderground v.1.15,2013-05-15 09:32:00,
2013-05-15 04:36:00,-999.9,-99.9,29.71,NNE,23,7.0,14.0,255,0.00,,,0.00,Wunderground v.1.15,2013-05-15 09:36:00,
2013-05-15 04:40:00,-999.9,-99.9,29.71,NNE,13,7.0,7.0,255,0.00,,,0.00,Wunderground v.1.15,2013-05-15 09:40:00,
2013-05-15 04:42:00,-999.9,-99.9,29.71,North,11,7.0,8.0,255,0.00,,,0.00,Wunderground v.1.15,2013-05-15 09:42:00,
2013-05-15 04:44:00,-999.9,-99.9,29.71,NNE,13,7.0,14.0,255,0.00,,,0.00,Wunderground v.1.15,2013-05-15 09:44:00,
2013-05-15 04:46:00,-999.9,-99.9,29.71,NNE,18,7.0,14.0,255,0.00,,,0.00,Wunderground v.1.15,2013-05-15 09:46:00,
2013-05-15 04:52:00,-999.9,-99.9,29.71,NE,41,6.0,14.0,255,0.00,,,0.00,Wunderground v.1.15,2013-05-15 09:52:00,
2013-05-15 04:54:00,-999.9,-99.9,29.71,NNE,23,6.0,14.0,255,0.00,,,0.00,Wunderground v.1.15,2013-05-15 09:54:00,
2013-05-15 04:56:00,-999.9,-99.9,29.72,NNE,33,5.0,14.0,255,0.00,,,0.00,Wunderground v.1.15,2013-05-15 09:56:00,
2013-05-15 04:58:00,-999.9,-99.9,29.72,NE,39,4.0,14.0,255,0.00,,,0.00,Wunderground v.1.15,2013-05-15 09:58:00,
2013-05-15 05:02:00,-999.9,-99.9,29.72,NE,37,2.0,14.0,255,0.00,,,0.00,Wunderground v.1.15,2013-05-15 10:02:00,
2013-05-15 05:06:00,-999.9,-99.9,29.73,NNE,15,2.0,14.0,255,0.00,,,0.00,Wunderground v.1.15,2013-05-15 10:06:00,
2013-05-15 05:08:00,-999.9,-99.9,29.73,NNE,23,2.0,14.0,255,0.00,,,0.00,Wunderground v.1.15,2013-05-15 10:08:00,
2013-05-15 05:09:00,-999.9,-99.9,29.72,NNE,22,2.0,14.0,255,0.00,,,0.00,Wunderground v.1.15,2013-05-15 10:09:00,
2013-05-15 05:11:00,-999.9,-99.9,29.73,NNE,25,2.0,14.0,255,0.00,,,0.00,Wunderground v.1.15,2013-05-15 10:11:00,
2013-05-15 05:16:00,-999.9,-99.9,29.73,NNE,29,3.0,14.0,255,0.00,,,0.00,Wunderground v.1.15,2013-05-15 10:16:00,
2013-05-15 05:18:00,-999.9,-99.9,29.73,NNE,21,3.0,14.0,255,0.00,,,0.00,Wunderground v.1.15,2013-05-15 10:18:00,
2013-05-15 05:20:00,-999.9,-99.9,29.73,NNE,20,3.0,3.0,255,0.00,,,0.00,Wunderground v.1.15,2013-05-15 10:20:00,
2013-05-15 05:24:00,-999.9,-99.9,29.74,North,359,2.0,14.0,255,0.00,,,0.00,Wunderground v.1.15,2013-05-15 10:24:00,
2013-05-15 05:28:00,-999.9,-99.9,29.74,North,5,2.0,14.0,255,0.00,,,0.00,Wunderground v.1.15,2013-05-15 10:28:00,
2013-05-15 05:31:00,-999.9,-99.9,29.73,NNE,23,3.0,14.0,255,0.00,,,0.00,Wunderground v.1.15,2013-05-15 10:31:00,
2013-05-15 05:36:00,-999.9,-99.9,29.73,NNE,23,5.0,14.0,255,0.00,,,0.00,Wunderground v.1.15,2013-05-15 10:36:00,
2013-05-15 05:38:00,-999.9,-99.9,29.72,NNE,29,6.0,14.0,255,0.00,,,0.00,Wunderground v.1.15,2013-05-15 10:38:00,
2013-05-15 05:44:00,-999.9,-99.9,29.73,NNE,15,8.0,14.0,255,0.00,,,0.00,Wunderground v.1.15,2013-05-15 10:44:00,
2013-05-15 05:46:00,-999.9,-99.9,29.73,NE,35,9.0,14.0,255,0.00,,,0.00,Wunderground v.1.15,2013-05-15 10:46:00,
2013-05-15 05:48:00,-999.9,-99.9,29.72,NNE,22,9.0,14.0,255,0.00,,,0.00,Wunderground v.1.15,2013-05-15 10:48:00,
2013-05-15 05:50:00,-999.9,-99.9,29.73,NNE,26,9.0,9.0,255,0.00,,,0.00,Wunderground v.1.15,2013-05-15 10:50:00,
2013-05-15 05:51:00,54.0,44.4,29.73,NE,34,9.0,14.0,70,0.00,,,0.00,Wunderground v.1.15,2013-05-15 10:51:00,
2013-05-15 05:56:00,54.1,44.5,29.73,NE,34,7.0,14.0,70,0.00,,,0.00,Wunderground v.1.15,2013-05-15 10:56:00,
2013-05-15 06:00:00,54.1,44.5,29.73,NNE,28,6.0,14.0,70,0.00,,,0.00,Wunderground v.1.15,2013-05-15 11:00:00,
2013-05-15 06:04:00,53.9,44.0,29.73,NE,38,7.0,14.0,69,0.00,,,0.00,Wunderground v.1.15,2013-05-15 11:04:00,
2013-05-15 06:10:00,53.9,44.0,29.73,NE,35,8.0,14.0,69,0.00,,,0.00,Wunderground v.1.15,2013-05-15 11:10:00,
2013-05-15 06:12:00,53.9,44.0,29.73,NNE,27,9.0,14.0,69,0.00,,,0.00,Wunderground v.1.15,2013-05-15 11:12:00,
2013-05-15 06:18:00,54.1,44.5,29.73,NNE,30,10.0,14.0,70,0.00,,,0.00,Wunderground v.1.15,2013-05-15 11:18:00,
2013-05-15 06:24:00,54.4,44.4,29.73,NE,43,10.0,14.0,69,0.00,,,0.00,Wunderground v.1.15,2013-05-15 11:24:00,
2013-05-15 06:30:00,54.6,44.2,29.73,NE,34,10.0,10.0,68,0.00,,,0.00,Wunderground v.1.15,2013-05-15 11:30:00,
2013-05-15 06:32:00,54.7,44.3,29.73,NE,37,10.0,14.0,68,0.00,,,0.00,Wunderground v.1.15,2013-05-15 11:32:00,
2013-05-15 06:36:00,55.1,44.3,29.73,NE,34,10.0,14.0,67,0.00,,,0.00,Wunderground v.1.15,2013-05-15 11:36:00,
2013-05-15 06:42:00,55.7,44.9,29.74,NE,41,10.0,14.0,67,0.00,,,0.00,Wunderground v.1.15,2013-05-15 11:42:00,
2013-05-15 06:44:00,55.7,44.5,29.74,NNE,25,10.0,14.0,66,0.00,,,0.00,Wunderground v.1.15,2013-05-15 11:44:00,
2013-05-15 06:47:00,56.0,44.8,29.74,NE,37,9.0,14.0,66,0.00,,,0.00,Wunderground v.1.15,2013-05-15 11:47:00,
2013-05-15 06:49:00,56.1,44.9,29.74,NE,39,9.0,9.0,66,0.00,,,0.00,Wunderground v.1.15,2013-05-15 11:49:00,
2013-05-15 06:56:00,56.5,44.9,29.75,NNE,29,8.0,14.0,65,0.00,,,0.00,Wunderground v.1.15,2013-05-15 11:56:00,
2013-05-15 06:58:00,56.6,45.0,29.75,NNE,19,8.0,14.0,65,0.00,,,0.00,Wunderground v.1.15,2013-05-15 11:58:00,
2013-05-15 07:02:00,56.7,45.1,29.75,NNE,22,9.0,12.0,65,0.00,,,0.00,Wunderground v.1.15,2013-05-15 12:02:00,
2013-05-15 07:04:00,56.8,45.2,29.76,NNE,26,9.0,14.0,65,0.00,,,0.00,Wunderground v.1.15,2013-05-15 12:04:00,
2013-05-15 07:07:00,57.0,45.3,29.76,NNE,33,9.0,14.0,65,0.00,,,0.00,Wunderground v.1.15,2013-05-15 12:07:00,
2013-05-15 07:14:00,57.4,45.7,29.76,NE,34,10.0,14.0,65,0.00,,,0.00,Wunderground v.1.15,2013-05-15 12:14:00,
2013-05-15 07:16:00,57.6,45.9,29.76,NNE,23,10.0,14.0,65,0.00,,,0.00,Wunderground v.1.15,2013-05-15 12:16:00,
2013-05-15 07:18:00,57.8,45.7,29.76,NE,49,10.0,14.0,64,0.00,,,0.00,Wunderground v.1.15,2013-05-15 12:18:00,
2013-05-15 07:22:00,58.1,45.1,29.76,NNE,19,10.0,14.0,62,0.00,,,0.00,Wunderground v.1.15,2013-05-15 12:22:00,
2013-05-15 07:23:00,58.2,45.2,29.76,NE,37,10.0,14.0,62,0.00,,,0.00,Wunderground v.1.15,2013-05-15 12:23:00,
2013-05-15 07:28:00,58.4,45.8,29.77,NNE,26,11.0,15.0,63,0.00,,,0.00,Wunderground v.1.15,2013-05-15 12:28:00,
2013-05-15 07:30:00,58.6,46.0,29.77,NE,34,11.0,14.0,63,0.00,,,0.00,Wunderground v.1.15,2013-05-15 12:30:00,
2013-05-15 07:32:00,58.8,45.8,29.76,NNE,19,12.0,14.0,62,0.00,,,0.00,Wunderground v.1.15,2013-05-15 12:32:00,
2013-05-15 07:36:00,59.0,46.0,29.76,NNE,25,12.0,14.0,62,0.00,,,0.00,Wunderground v.1.15,2013-05-15 12:36:00,
2013-05-15 07:38:00,59.2,45.8,29.76,NNE,26,11.0,14.0,61,0.00,,,0.00,Wunderground v.1.15,2013-05-15 12:38:00,
2013-05-15 07:42:00,59.5,45.6,29.76,NNE,13,10.0,13.0,60,0.00,,,0.00,Wunderground v.1.15,2013-05-15 12:42:00,
2013-05-15 07:46:00,59.9,46.0,29.76,NNE,25,10.0,14.0,60,0.00,,,0.00,Wunderground v.1.15,2013-05-15 12:46:00,
2013-05-15 07:48:00,60.1,45.7,29.76,NNE,26,10.0,14.0,59,0.00,,,0.00,Wunderground v.1.15,2013-05-15 12:48:00,
2013-05-15 07:50:00,60.4,46.0,29.76,NNE,33,10.0,14.0,59,0.00,,,0.00,Wunderground v.1.15,2013-05-15 12:50:00,
2013-05-15 07:53:00,60.8,45.9,29.76,NNE,30,11.0,14.0,58,0.00,,,0.00,Wunderground v.1.15,2013-05-15 12:53:00,
2013-05-15 07:58:00,61.2,45.8,29.77,NE,39,13.0,14.0,57,0.00,,,0.00,Wunderground v.1.15,2013-05-15 12:58:00,
2013-05-15 08:00:00,61.4,46.0,29.78,NE,43,13.0,13.0,57,0.00,,,0.00,Wunderground v.1.15,2013-05-15 13:00:00,
2013-05-15 08:04:00,61.8,45.9,29.78,NE,49,11.0,14.0,56,0.00,,,0.00,Wunderground v.1.15,2013-05-15 13:04:00,
2013-05-15 08:10:00,61.8,45.5,29.78,ENE,65,8.0,8.0,55,0.00,,,0.00,Wunderground v.1.15,2013-05-15 13:10:00,
2013-05-15 08:11:00,62.0,45.6,29.78,NNE,27,8.0,14.0,55,0.00,,,0.00,Wunderground v.1.15,2013-05-15 13:11:00,
2013-05-15 08:16:00,62.6,45.7,29.78,NE,50,7.0,14.0,54,0.00,,,0.00,Wunderground v.1.15,2013-05-15 13:16:00,
2013-05-15 08:18:00,62.7,45.8,29.78,NE,51,7.0,14.0,54,0.00,,,0.00,Wunderground v.1.15,2013-05-15 13:18:00,
2013-05-15 08:23:00,63.2,45.8,29.79,NNE,22,6.0,14.0,53,0.00,,,0.00,Wunderground v.1.15,2013-05-15 13:23:00,
2013-05-15 08:28:00,64.0,46.0,29.80,NE,38,6.0,14.0,52,0.00,,,0.00,Wunderground v.1.15,2013-05-15 13:28:00,
2013-05-15 08:30:00,64.2,45.7,29.80,NE,56,7.0,14.0,51,0.00,,,0.00,Wunderground v.1.15,2013-05-15 13:30:00,
2013-05-15 08:32:00,64.2,45.2,29.80,NE,50,7.0,14.0,50,0.00,,,0.00,Wunderground v.1.15,2013-05-15 13:32:00,
2013-05-15 08:36:00,64.3,44.7,29.80,ENE,72,7.0,14.0,49,0.00,,,0.00,Wunderground v.1.15,2013-05-15 13:36:00,
2013-05-15 08:38:00,64.4,45.3,29.80,ENE,60,6.0,14.0,50,0.00,,,0.00,Wunderground v.1.15,2013-05-15 13:38:00,
2013-05-15 08:43:00,64.7,45.1,29.81,ENE,67,7.0,14.0,49,0.00,,,0.00,Wunderground v.1.15,2013-05-15 13:43:00,
2013-05-15 08:46:00,64.9,45.3,29.81,NE,43,7.0,14.0,49,0.00,,,0.00,Wunderground v.1.15,2013-05-15 13:46:00,
2013-05-15 08:50:00,65.5,45.8,29.81,NE,37,8.0,14.0,49,0.00,,,0.00,Wunderground v.1.15,2013-05-15 13:50:00,
2013-05-15 08:56:00,65.4,44.1,29.82,NE,52,7.0,14.0,46,0.00,,,0.00,Wunderground v.1.15,2013-05-15 13:56:00,
2013-05-15 08:59:00,65.3,44.5,29.82,NE,35,7.0,7.0,47,0.00,,,0.00,Wunderground v.1.15,2013-05-15 13:59:00,
2013-05-15 09:01:00,65.3,45.1,29.82,ENE,63,7.0,14.0,48,0.00,,,0.00,Wunderground v.1.15,2013-05-15 14:01:00,
2013-05-15 09:04:00,65.5,45.8,29.81,NNE,27,6.0,14.0,49,0.00,,,0.00,Wunderground v.1.15,2013-05-15 14:04:00,
2013-05-15 09:12:00,66.6,44.6,29.82,North,8,5.0,14.0,45,0.00,,,0.00,Wunderground v.1.15,2013-05-15 14:12:00,
2013-05-15 09:16:00,67.3,44.0,29.82,NE,40,6.0,14.0,43,0.00,,,0.00,Wunderground v.1.15,2013-05-15 14:16:00,
2013-05-15 09:18:00,67.3,44.0,29.82,NNE,32,6.0,14.0,43,0.00,,,0.00,Wunderground v.1.15,2013-05-15 14:18:00,
2013-05-15 09:22:00,67.7,44.4,29.81,NE,42,6.0,14.0,43,0.00,,,0.00,Wunderground v.1.15,2013-05-15 14:22:00,
2013-05-15 09:24:00,67.9,44.0,29.81,East,83,6.0,14.0,42,0.00,,,0.00,Wunderground v.1.15,2013-05-15 14:24:00,
2013-05-15 09:28:00,68.0,44.7,29.81,NE,42,4.0,14.0,43,0.00,,,0.00,Wunderground v.1.15,2013-05-15 14:28:00,
2013-05-15 09:30:00,68.1,44.7,29.81,SE,131,3.0,3.0,43,0.00,,,0.00,Wunderground v.1.15,2013-05-15 14:30:00,
2013-05-15 09:32:00,68.2,44.8,29.81,SE,124,3.0,14.0,43,0.00,,,0.00,Wunderground v.1.15,2013-05-15 14:32:00,
2013-05-15 09:38:00,68.0,44.7,29.81,ENE,65,3.0,14.0,43,0.00,,,0.00,Wunderground v.1.15,2013-05-15 14:38:00,
2013-05-15 09:39:00,67.8,42.6,29.80,ENE,71,3.0,3.0,40,0.00,,,0.00,Wunderground v.1.15,2013-05-15 14:39:00,
2013-05-15 09:41:00,67.8,42.6,29.80,SE,141,3.0,14.0,40,0.00,,,0.00,Wunderground v.1.15,2013-05-15 14:41:00,
2013-05-15 09:44:00,68.0,42.8,29.80,ESE,117,3.0,14.0,40,0.00,,,0.00,Wunderground v.1.15,2013-05-15 14:44:00,
2013-05-15 09:48:00,68.3,43.0,29.80,NNE,30,3.0,14.0,40,0.00,,,0.00,Wunderground v.1.15,2013-05-15 14:48:00,
2013-05-15 09:50:00,68.5,41.9,29.80,ENE,62,3.0,14.0,38,0.00,,,0.00,Wunderground v.1.15,2013-05-15 14:50:00,
2013-05-15 09:52:00,68.5,41.9,29.80,NE,50,4.0,14.0,38,0.00,,,0.00,Wunderground v.1.15,2013-05-15 14:52:00,
2013-05-15 09:56:00,68.5,41.9,29.80,East,80,5.0,14.0,38,0.00,,,0.00,Wunderground v.1.15,2013-05-15 14:56:00,
2013-05-15 09:57:00,68.6,41.3,29.80,NE,38,5.0,14.0,37,0.00,,,0.00,Wunderground v.1.15,2013-05-15 14:57:00,
2013-05-15 10:02:00,69.2,41.8,29.80,NE,52,4.0,14.0,37,0.00,,,0.00,Wunderground v.1.15,2013-05-15 15:02:00,
2013-05-15 10:04:00,69.3,41.2,29.80,NE,50,4.0,14.0,36,0.00,,,0.00,Wunderground v.1.15,2013-05-15 15:04:00,
2013-05-15 10:06:00,69.4,40.5,29.80,NNE,15,4.0,14.0,35,0.00,,,0.00,Wunderground v.1.15,2013-05-15 15:06:00,
2013-05-15 10:10:00,69.5,40.6,29.80,ENE,65,4.0,4.0,35,0.00,,,0.00,Wunderground v.1.15,2013-05-15 15:10:00,
2013-05-15 10:12:00,69.8,42.3,29.80,NE,53,4.0,5.0,37,0.00,,,0.00,Wunderground v.1.15,2013-05-15 15:12:00,
2013-05-15 10:16:00,70.0,41.1,29.80,ENE,67,4.0,14.0,35,0.00,,,0.00,Wunderground v.1.15,2013-05-15 15:16:00,
2013-05-15 10:19:00,70.0,41.1,29.80,ENE,59,5.0,5.0,35,0.00,,,0.00,Wunderground v.1.15,2013-05-15 15:19:00,
2013-05-15 10:26:00,70.5,40.0,29.80,SW,226,3.0,14.0,33,0.00,,,0.00,Wunderground v.1.15,2013-05-15 15:26:00,
2013-05-15 10:30:00,71.0,41.2,29.80,NE,47,2.0,14.0,34,0.00,,,0.00,Wunderground v.1.15,2013-05-15 15:30:00,
2013-05-15 10:32:00,71.2,40.6,29.80,ENE,57,2.0,14.0,33,0.00,,,0.00,Wunderground v.1.15,2013-05-15 15:32:00,
2013-05-15 10:35:00,71.1,41.3,29.80,NNE,23,3.0,14.0,34,0.00,,,0.00,Wunderground v.1.15,2013-05-15 15:35:00,
2013-05-15 10:37:00,71.2,39.8,29.80,ENE,57,4.0,14.0,32,0.00,,,0.00,Wunderground v.1.15,2013-05-15 15:37:00,
2013-05-15 10:44:00,71.6,40.2,29.80,NE,51,4.0,14.0,32,0.00,,,0.00,Wunderground v.1.15,2013-05-15 15:44:00,
2013-05-15 10:52:00,71.9,41.2,29.80,ENE,74,3.0,14.0,33,0.00,,,0.00,Wunderground v.1.15,2013-05-15 15:52:00,
2013-05-15 10:53:00,72.0,41.3,29.80,ENE,60,3.0,14.0,33,0.00,,,0.00,Wunderground v.1.15,2013-05-15 15:53:00,
2013-05-15 10:58:00,72.4,42.4,29.80,South,170,2.0,14.0,34,0.00,,,0.00,Wunderground v.1.15,2013-05-15 15:58:00,
2013-05-15 11:04:00,73.0,42.2,29.80,ENE,72,2.0,14.0,33,0.00,,,0.00,Wunderground v.1.15,2013-05-15 16:04:00,
2013-05-15 11:08:00,73.1,42.3,29.80,ENE,69,2.0,14.0,33,0.00,,,0.00,Wunderground v.1.15,2013-05-15 16:08:00,
2013-05-15 11:13:00,73.2,40.7,29.80,NE,56,3.0,14.0,31,0.00,,,0.00,Wunderground v.1.15,2013-05-15 16:13:00,
2013-05-15 11:18:00,73.1,42.3,29.79,ENE,66,5.0,14.0,33,0.00,,,0.00,Wunderground v.1.15,2013-05-15 16:18:00,
2013-05-15 11:20:00,73.3,43.2,29.79,SSE,165,5.0,5.0,34,0.00,,,0.00,Wunderground v.1.15,2013-05-15 16:20:00,
2013-05-15 11:26:00,74.3,41.7,29.79,NNE,23,4.0,14.0,31,0.00,,,0.00,Wunderground v.1.15,2013-05-15 16:26:00,
2013-05-15 11:32:00,74.0,40.6,29.79,NE,46,5.0,14.0,30,0.00,,,0.00,Wunderground v.1.15,2013-05-15 16:32:00,
2013-05-15 11:33:00,73.7,40.3,29.79,NE,56,5.0,14.0,30,0.00,,,0.00,Wunderground v.1.15,2013-05-15 16:33:00,
2013-05-15 11:38:00,73.6,41.9,29.80,ESE,110,4.0,14.0,32,0.00,,,0.00,Wunderground v.1.15,2013-05-15 16:38:00,
2013-05-15 11:40:00,73.6,41.1,29.80,ENE,68,3.0,3.0,31,0.00,,,0.00,Wunderground v.1.15,2013-05-15 16:40:00,
2013-05-15 11:46:00,73.3,41.6,29.81,ENE,60,2.0,14.0,32,0.00,,,0.00,Wunderground v.1.15,2013-05-15 16:46:00,
2013-05-15 11:48:00,73.4,41.7,29.81,ENE,60,1.0,14.0,32,0.00,,,0.00,Wunderground v.1.15,2013-05-15 16:48:00,
2013-05-15 11:50:00,73.4,40.9,29.81,NNE,25,2.0,14.0,31,0.00,,,0.00,Wunderground v.1.15,2013-05-15 16:50:00,
2013-05-15 11:53:00,73.9,42.2,29.80,ENE,63,3.0,14.0,32,0.00,,,0.00,Wunderground v.1.15,2013-05-15 16:53:00,
2013-05-15 11:56:00,73.5,41.0,29.80,ESE,111,5.0,14.0,31,0.00,,,0.00,Wunderground v.1.15,2013-05-15 16:56:00,
2013-05-15 12:00:00,72.7,40.3,29.81,North,8,5.0,5.0,31,0.00,,,0.00,Wunderground v.1.15,2013-05-15 17:00:00,
2013-05-15 12:02:00,72.6,41.0,29.81,NNE,21,5.0,14.0,32,0.00,,,0.00,Wunderground v.1.15,2013-05-15 17:02:00,
2013-05-15 12:06:00,72.6,39.4,29.81,NE,34,4.0,14.0,30,0.00,,,0.00,Wunderground v.1.15,2013-05-15 17:06:00,
2013-05-15 12:08:00,72.7,40.3,29.80,NNE,22,4.0,14.0,31,0.00,,,0.00,Wunderground v.1.15,2013-05-15 17:08:00,
2013-05-15 12:14:00,72.5,41.0,29.79,NE,51,4.0,5.0,32,0.00,,,0.00,Wunderground v.1.15,2013-05-15 17:14:00,
2013-05-15 12:17:00,72.1,42.2,29.79,ENE,57,4.0,5.0,34,0.00,,,0.00,Wunderground v.1.15,2013-05-15 17:17:00,
2013-05-15 12:19:00,72.2,40.7,29.80,NNE,25,4.0,4.0,32,0.00,,,0.00,Wunderground v.1.15,2013-05-15 17:19:00,
2013-05-15 12:22:00,72.6,42.6,29.80,East,89,3.0,4.0,34,0.00,,,0.00,Wunderground v.1.15,2013-05-15 17:22:00,
2013-05-15 12:27:00,73.7,42.0,29.79,East,81,3.0,4.0,32,0.00,,,0.00,Wunderground v.1.15,2013-05-15 17:27:00,
2013-05-15 12:30:00,73.8,41.3,29.79,ESE,111,3.0,3.0,31,0.00,,,0.00,Wunderground v.1.15,2013-05-15 17:30:00,
2013-05-15 12:34:00,74.2,43.2,29.78,SE,128,2.0,3.0,33,0.00,,,0.00,Wunderground v.1.15,2013-05-15 17:34:00,
2013-05-15 12:36:00,74.6,44.4,29.78,ESE,111,2.0,3.0,34,0.00,,,0.00,Wunderground v.1.15,2013-05-15 17:36:00,
2013-05-15 12:38:00,75.0,43.1,29.78,SE,139,2.0,3.0,32,0.00,,,0.00,Wunderground v.1.15,2013-05-15 17:38:00,
2013-05-15 12:40:00,75.2,41.6,29.78,SE,139,1.0,2.0,30,0.00,,,0.00,Wunderground v.1.15,2013-05-15 17:40:00,
2013-05-15 12:42:00,75.2,40.7,29.78,SE,146,2.0,2.0,29,0.00,,,0.00,Wunderground v.1.15,2013-05-15 17:42:00,
2013-05-15 12:44:00,75.4,43.5,29.78,South,169,2.0,2.0,32,0.00,,,0.00,Wunderground v.1.15,2013-05-15 17:44:00,
2013-05-15 12:48:00,76.0,43.2,29.78,SSE,148,2.0,2.0,31,0.00,,,0.00,Wunderground v.1.15,2013-05-15 17:48:00,
2013-05-15 12:50:00,76.2,43.3,29.78,SE,139,2.0,2.0,31,0.00,,,0.00,Wunderground v.1.15,2013-05-15 17:50:00,
2013-05-15 12:54:00,76.7,45.4,29.78,NE,46,2.0,3.0,33,0.00,,,0.00,Wunderground v.1.15,2013-05-15 17:54:00,
2013-05-15 12:56:00,76.5,43.6,29.77,ENE,67,2.0,3.0,31,0.00,,,0.00,Wunderground v.1.15,2013-05-15 17:56:00,
2013-05-15 13:02:00,75.9,43.1,29.77,SSE,148,2.0,3.0,31,0.00,,,0.00,Wunderground v.1.15,2013-05-15 18:02:00,
2013-05-15 13:04:00,76.0,43.2,29.77,SE,142,2.0,10.0,31,0.00,,,0.00,Wunderground v.1.15,2013-05-15 18:04:00,
2013-05-15 13:07:00,76.1,42.4,29.77,SSE,153,2.0,10.0,30,0.00,,,0.00,Wunderground v.1.15,2013-05-15 18:07:00,
2013-05-15 13:11:00,76.3,44.3,29.76,SE,143,3.0,10.0,32,0.00,,,0.00,Wunderground v.1.15,2013-05-15 18:11:00,
2013-05-15 13:14:00,76.6,43.7,29.77,SE,137,2.0,10.0,31,0.00,,,0.00,Wunderground v.1.15,2013-05-15 18:14:00,
2013-05-15 13:16:00,76.7,43.8,29.77,SE,128,3.0,10.0,31,0.00,,,0.00,Wunderground v.1.15,2013-05-15 18:16:00,
2013-05-15 13:22:00,76.5,41.9,29.76,SE,139,2.0,10.0,29,0.00,,,0.00,Wunderground v.1.15,2013-05-15 18:22:00,
2013-05-15 13:28:00,77.1,43.3,29.76,SE,145,2.0,10.0,30,0.00,,,0.00,Wunderground v.1.15,2013-05-15 18:28:00,
2013-05-15 13:32:00,78.0,43.2,29.75,SE,139,2.0,10.0,29,0.00,,,0.00,Wunderground v.1.15,2013-05-15 18:32:00,
2013-05-15 13:34:00,78.4,45.3,29.75,ENE,75,2.0,10.0,31,0.00,,,0.00,Wunderground v.1.15,2013-05-15 18:34:00,
2013-05-15 13:36:00,78.6,43.7,29.75,SE,139,2.0,10.0,29,0.00,,,0.00,Wunderground v.1.15,2013-05-15 18:36:00,
2013-05-15 13:40:00,78.9,45.7,29.74,SE,131,2.0,10.0,31,0.00,,,0.00,Wunderground v.1.15,2013-05-15 18:40:00,
2013-05-15 13:42:00,79.0,47.4,29.74,SSE,158,2.0,10.0,33,0.00,,,0.00,Wunderground v.1.15,2013-05-15 18:42:00,
2013-05-15 13:46:00,78.5,44.5,29.74,SW,235,2.0,10.0,30,0.00,,,0.00,Wunderground v.1.15,2013-05-15 18:46:00,
2013-05-15 13:47:00,78.4,46.1,29.74,SE,145,3.0,10.0,32,0.00,,,0.00,Wunderground v.1.15,2013-05-15 18:47:00,
2013-05-15 13:52:00,78.4,43.5,29.74,SE,138,3.0,10.0,29,0.00,,,0.00,Wunderground v.1.15,2013-05-15 18:52:00,
2013-05-15 13:54:00,78.5,45.3,29.74,SE,138,3.0,10.0,31,0.00,,,0.00,Wunderground v.1.15,2013-05-15 18:54:00,
2013-05-15 13:58:00,78.8,45.6,29.74,SE,142,2.0,10.0,31,0.00,,,0.00,Wunderground v.1.15,2013-05-15 18:58:00,
2013-05-15 14:00:00,78.9,46.5,29.74,SSE,148,2.0,10.0,32,0.00,,,0.00,Wunderground v.1.15,2013-05-15 19:00:00,
2013-05-15 14:02:00,78.9,48.1,29.74,SSE,150,3.0,10.0,34,0.00,,,0.00,Wunderground v.1.15,2013-05-15 19:02:00,
2013-05-15 14:04:00,78.8,48.1,29.74,SE,135,3.0,10.0,34,0.00,,,0.00,Wunderground v.1.15,2013-05-15 19:04:00,
2013-05-15 14:08:00,78.7,48.0,29.73,ENE,64,3.0,10.0,34,0.00,,,0.00,Wunderground v.1.15,2013-05-15 19:08:00,
2013-05-15 14:14:00,79.3,44.3,29.73,SSE,148,2.0,10.0,29,0.00,,,0.00,Wunderground v.1.15,2013-05-15 19:14:00,
2013-05-15 14:18:00,79.6,44.5,29.73,SSE,157,2.0,10.0,29,0.00,,,0.00,Wunderground v.1.15,2013-05-15 19:18:00,
2013-05-15 14:24:00,79.8,45.6,29.72,SE,137,3.0,10.0,30,0.00,,,0.00,Wunderground v.1.15,2013-05-15 19:24:00,
2013-05-15 14:30:00,79.3,45.2,29.72,SSE,162,3.0,3.0,30,0.00,,,0.00,Wunderground v.1.15,2013-05-15 19:30:00,
2013-05-15 14:34:00,79.3,45.2,29.73,WSW,243,2.0,10.0,30,0.00,,,0.00,Wunderground v.1.15,2013-05-15 19:34:00,
2013-05-15 14:35:00,79.4,44.4,29.73,SE,142,1.0,10.0,29,0.00,,,0.00,Wunderground v.1.15,2013-05-15 19:35:00,
2013-05-15 14:37:00,79.4,43.4,29.73,SE,142,1.0,10.0,28,0.00,,,0.00,Wunderground v.1.15,2013-05-15 19:37:00,
2013-05-15 14:42:00,79.5,44.5,29.74,ENE,68,1.0,10.0,29,0.00,,,0.00,Wunderground v.1.15,2013-05-15 19:42:00,
2013-05-15 14:44:00,79.5,46.2,29.74,ENE,69,1.0,10.0,31,0.00,,,0.00,Wunderground v.1.15,2013-05-15 19:44:00,
2013-05-15 14:48:00,79.2,46.8,29.74,SE,126,1.0,10.0,32,0.00,,,0.00,Wunderground v.1.15,2013-05-15 19:48:00,
2013-05-15 14:50:00,79.1,46.7,29.74,SE,137,1.0,10.0,32,0.00,,,0.00,Wunderground v.1.15,2013-05-15 19:50:00,
2013-05-15 14:55:00,79.1,45.0,29.73,SE,125,1.0,10.0,30,0.00,,,0.00,Wunderground v.1.15,2013-05-15 19:55:00,
2013-05-15 14:57:00,79.3,44.3,29.73,SE,134,1.0,10.0,29,0.00,,,0.00,Wunderground v.1.15,2013-05-15 19:57:00,
2013-05-15 14:59:00,79.3,44.3,29.73,SE,142,1.0,10.0,29,0.00,,,0.00,Wunderground v.1.15,2013-05-15 19:59:00,
2013-05-15 15:02:00,79.1,45.0,29.73,SSE,148,1.0,10.0,30,0.00,,,0.00,Wunderground v.1.15,2013-05-15 20:02:00,
2013-05-15 15:04:00,79.0,44.9,29.73,SE,144,1.0,10.0,30,0.00,,,0.00,Wunderground v.1.15,2013-05-15 20:04:00,
2013-05-15 15:10:00,79.3,48.5,29.73,SSE,153,1.0,10.0,34,0.00,,,0.00,Wunderground v.1.15,2013-05-15 20:10:00,
2013-05-15 15:14:00,79.7,44.6,29.74,SE,146,1.0,10.0,29,0.00,,,0.00,Wunderground v.1.15,2013-05-15 20:14:00,
2013-05-15 15:20:00,80.2,44.1,29.73,SSE,148,2.0,10.0,28,0.00,,,0.00,Wunderground v.1.15,2013-05-15 20:20:00,
2013-05-15 15:26:00,80.3,44.2,29.73,SSE,152,2.0,10.0,28,0.00,,,0.00,Wunderground v.1.15,2013-05-15 20:26:00,
2013-05-15 15:28:00,80.3,44.2,29.73,SE,138,2.0,10.0,28,0.00,,,0.00,Wunderground v.1.15,2013-05-15 20:28:00,
2013-05-15 15:30:00,80.4,46.1,29.73,SE,125,2.0,10.0,30,0.00,,,0.00,Wunderground v.1.15,2013-05-15 20:30:00,
2013-05-15 15:32:00,80.7,47.2,29.73,SE,128,2.0,10.0,31,0.00,,,0.00,Wunderground v.1.15,2013-05-15 20:32:00,
2013-05-15 15:35:00,81.2,45.0,29.73,SE,131,2.0,10.0,28,0.00,,,0.00,Wunderground v.1.15,2013-05-15 20:35:00,
2013-05-15 15:37:00,81.3,45.1,29.73,ENE,61,2.0,10.0,28,0.00,,,0.00,Wunderground v.1.15,2013-05-15 20:37:00,
2013-05-15 15:40:00,81.3,45.1,29.73,ENE,64,2.0,2.0,28,0.00,,,0.00,Wunderground v.1.15,2013-05-15 20:40:00,
2013-05-15 15:44:00,81.3,45.1,29.73,SE,145,2.0,10.0,28,0.00,,,0.00,Wunderground v.1.15,2013-05-15 20:44:00,
2013-05-15 15:46:00,81.3,46.0,29.73,ESE,122,2.0,10.0,29,0.00,,,0.00,Wunderground v.1.15,2013-05-15 20:46:00,
2013-05-15 15:52:00,81.4,45.2,29.73,SE,145,2.0,10.0,28,0.00,,,0.00,Wunderground v.1.15,2013-05-15 20:52:00,
2013-05-15 15:54:00,81.4,47.0,29.73,ENE,58,2.0,10.0,30,0.00,,,0.00,Wunderground v.1.15,2013-05-15 20:54:00,
2013-05-15 15:57:00,81.2,46.8,29.73,NE,53,2.0,10.0,30,0.00,,,0.00,Wunderground v.1.15,2013-05-15 20:57:00,
2013-05-15 16:02:00,79.8,48.1,29.73,NNE,30,5.0,10.0,33,0.00,,,0.00,Wunderground v.1.15,2013-05-15 21:02:00,
2013-05-15 16:04:00,79.2,48.4,29.73,NE,37,7.0,11.0,34,0.00,,,0.00,Wunderground v.1.15,2013-05-15 21:04:00,
2013-05-15 16:08:00,78.8,48.8,29.73,NE,46,10.0,12.0,35,0.00,,,0.00,Wunderground v.1.15,2013-05-15 21:08:00,
2013-05-15 16:14:00,78.4,48.5,29.73,NNE,26,11.0,13.0,35,0.00,,,0.00,Wunderground v.1.15,2013-05-15 21:14:00,
2013-05-15 16:16:00,78.2,49.1,29.73,NE,49,12.0,14.0,36,0.00,,,0.00,Wunderground v.1.15,2013-05-15 21:16:00,
2013-05-15 16:18:00,77.9,50.2,29.73,NE,44,12.0,14.0,38,0.00,,,0.00,Wunderground v.1.15,2013-05-15 21:18:00,
2013-05-15 16:19:00,77.6,50.0,29.73,NNE,25,12.0,12.0,38,0.00,,,0.00,Wunderground v.1.15,2013-05-15 21:19:00,
2013-05-15 16:24:00,76.9,49.4,29.73,NE,51,12.0,15.0,38,0.00,,,0.00,Wunderground v.1.15,2013-05-15 21:24:00,
2013-05-15 16:30:00,75.4,48.0,29.73,NNE,33,12.0,14.0,38,0.00,,,0.00,Wunderground v.1.15,2013-05-15 21:30:00,
2013-05-15 16:32:00,75.3,48.6,29.73,NE,45,12.0,14.0,39,0.00,,,0.00,Wunderground v.1.15,2013-05-15 21:32:00,
2013-05-15 16:38:00,75.5,48.8,29.73,NNE,23,11.0,14.0,39,0.00,,,0.00,Wunderground v.1.15,2013-05-15 21:38:00,
2013-05-15 16:41:00,76.1,48.6,29.73,NNE,27,10.0,15.0,38,0.00,,,0.00,Wunderground v.1.15,2013-05-15 21:41:00,
2013-05-15 16:46:00,77.0,49.4,29.73,NNE,18,10.0,15.0,38,0.00,,,0.00,Wunderground v.1.15,2013-05-15 21:46:00,
2013-05-15 16:48:00,77.5,48.4,29.73,NNE,27,10.0,15.0,36,0.00,,,0.00,Wunderground v.1.15,2013-05-15 21:48:00,
2013-05-15 16:50:00,77.8,49.4,29.73,NNE,23,11.0,11.0,37,0.00,,,0.00,Wunderground v.1.15,2013-05-15 21:50:00,
2013-05-15 16:56:00,78.6,47.9,29.73,NE,39,11.0,12.0,34,0.00,,,0.00,Wunderground v.1.15,2013-05-15 21:56:00,
2013-05-15 17:02:00,78.7,48.0,29.73,NE,46,10.0,13.0,34,0.00,,,0.00,Wunderground v.1.15,2013-05-15 22:02:00,
2013-05-15 17:04:00,78.3,48.4,29.73,NE,49,10.0,13.0,35,0.00,,,0.00,Wunderground v.1.15,2013-05-15 22:04:00,
2013-05-15 17:06:00,78.0,48.9,29.73,NNE,16,10.0,13.0,36,0.00,,,0.00,Wunderground v.1.15,2013-05-15 22:06:00,
2013-05-15 17:12:00,78.3,48.4,29.73,NNE,27,10.0,11.0,35,0.00,,,0.00,Wunderground v.1.15,2013-05-15 22:12:00,
2013-05-15 17:14:00,78.2,48.3,29.73,North,8,10.0,11.0,35,0.00,,,0.00,Wunderground v.1.15,2013-05-15 22:14:00,
2013-05-15 17:19:00,77.7,49.3,29.73,NE,49,9.0,10.0,37,0.00,,,0.00,Wunderground v.1.15,2013-05-15 22:19:00,
2013-05-15 17:22:00,77.5,48.4,29.73,NNE,27,9.0,11.0,36,0.00,,,0.00,Wunderground v.1.15,2013-05-15 22:22:00,
2013-05-15 17:26:00,77.3,47.5,29.73,NNE,30,9.0,11.0,35,0.00,,,0.00,Wunderground v.1.15,2013-05-15 22:26:00,
2013-05-15 17:28:00,77.2,47.4,29.73,NE,46,8.0,11.0,35,0.00,,,0.00,Wunderground v.1.15,2013-05-15 22:28:00,
2013-05-15 17:32:00,77.1,48.1,29.72,NE,37,7.0,10.0,36,0.00,,,0.00,Wunderground v.1.15,2013-05-15 22:32:00,
2013-05-15 17:33:00,77.0,48.7,29.72,NNE,22,7.0,10.0,37,0.00,,,0.00,Wunderground v.1.15,2013-05-15 22:33:00,
2013-05-15 17:35:00,77.0,48.0,29.73,NE,39,7.0,10.0,36,0.00,,,0.00,Wunderground v.1.15,2013-05-15 22:35:00,
2013-05-15 17:40:00,77.0,48.0,29.72,NE,35,8.0,8.0,36,0.00,,,0.00,Wunderground v.1.15,2013-05-15 22:40:00,
2013-05-15 17:42:00,77.0,48.7,29.73,NE,44,8.0,11.0,37,0.00,,,0.00,Wunderground v.1.15,2013-05-15 22:42:00,
2013-05-15 17:44:00,76.9,48.6,29.73,NNE,15,9.0,11.0,37,0.00,,,0.00,Wunderground v.1.15,2013-05-15 22:44:00,
2013-05-15 17:46:00,76.7,47.7,29.73,NE,40,8.0,11.0,36,0.00,,,0.00,Wunderground v.1.15,2013-05-15 22:46:00,
2013-05-15 17:50:00,76.6,48.4,29.73,NE,36,7.0,7.0,37,0.00,,,0.00,Wunderground v.1.15,2013-05-15 22:50:00,
2013-05-15 17:52:00,76.6,48.4,29.73,NNE,32,7.0,8.0,37,0.00,,,0.00,Wunderground v.1.15,2013-05-15 22:52:00,
2013-05-15 17:58:00,76.6,49.8,29.72,ENE,63,5.0,10.0,39,0.00,,,0.00,Wunderground v.1.15,2013-05-15 22:58:00,
2013-05-15 18:02:00,76.2,48.7,29.72,NNE,23,5.0,10.0,38,0.00,,,0.00,Wunderground v.1.15,2013-05-15 23:02:00,
2013-05-15 18:06:00,76.0,49.2,29.73,ENE,67,4.0,10.0,39,0.00,,,0.00,Wunderground v.1.15,2013-05-15 23:06:00,
2013-05-15 18:08:00,75.9,49.2,29.73,ENE,75,4.0,10.0,39,0.00,,,0.00,Wunderground v.1.15,2013-05-15 23:08:00,
2013-05-15 18:10:00,75.9,48.5,29.73,ENE,58,4.0,4.0,38,0.00,,,0.00,Wunderground v.1.15,2013-05-15 23:10:00,
2013-05-15 18:12:00,75.8,49.1,29.73,NNE,30,4.0,5.0,39,0.00,,,0.00,Wunderground v.1.15,2013-05-15 23:12:00,
2013-05-15 18:18:00,75.9,48.5,29.73,NE,46,3.0,10.0,38,0.00,,,0.00,Wunderground v.1.15,2013-05-15 23:18:00,
2013-05-15 18:22:00,76.1,48.6,29.73,NNE,20,4.0,10.0,38,0.00,,,0.00,Wunderground v.1.15,2013-05-15 23:22:00,
2013-05-15 18:28:00,76.1,48.6,29.73,NNE,18,5.0,10.0,38,0.00,,,0.00,Wunderground v.1.15,2013-05-15 23:28:00,
2013-05-15 18:30:00,76.0,49.2,29.73,NE,44,5.0,10.0,39,0.00,,,0.00,Wunderground v.1.15,2013-05-15 23:30:00,
2013-05-15 18:31:00,75.9,48.5,29.73,ENE,59,5.0,10.0,38,0.00,,,0.00,Wunderground v.1.15,2013-05-15 23:31:00,
2013-05-15 18:33:00,75.8,49.1,29.73,ENE,59,5.0,10.0,39,0.00,,,0.00,Wunderground v.1.15,2013-05-15 23:33:00,
2013-05-15 18:38:00,75.5,48.1,29.73,NE,44,4.0,10.0,38,0.00,,,0.00,Wunderground v.1.15,2013-05-15 23:38:00,
2013-05-15 18:46:00,75.6,48.2,29.73,NE,41,6.0,10.0,38,0.00,,,0.00,Wunderground v.1.15,2013-05-15 23:46:00,
2013-05-15 18:48:00,75.6,48.2,29.73,NE,50,6.0,10.0,38,0.00,,,0.00,Wunderground v.1.15,2013-05-15 23:48:00,
2013-05-15 18:51:00,75.5,48.8,29.73,North,10,6.0,10.0,39,0.00,,,0.00,Wunderground v.1.15,2013-05-15 23:51:00,
2013-05-15 18:54:00,75.5,48.8,29.73,North,8,4.0,10.0,39,0.00,,,0.00,Wunderground v.1.15,2013-05-15 23:54:00,
2013-05-15 18:56:00,75.5,50.1,29.73,North,356,4.0,10.0,41,0.00,,,0.00,Wunderground v.1.15,2013-05-15 23:56:00,
2013-05-15 18:58:00,75.5,49.5,29.73,North,360,4.0,10.0,40,0.00,,,0.00,Wunderground v.1.15,2013-05-15 23:58:00,
2013-05-15 19:00:00,75.5,49.5,29.73,North,5,5.0,10.0,40,0.00,,,0.00,Wunderground v.1.15,2013-05-16 00:00:00,
2013-05-15 19:06:00,75.4,50.1,29.73,NNE,20,6.0,10.0,41,0.00,,,0.00,Wunderground v.1.15,2013-05-16 00:06:00,
2013-05-15 19:09:00,75.3,50.0,29.73,NNE,30,6.0,6.0,41,0.00,,,0.00,Wunderground v.1.15,2013-05-16 00:09:00,
2013-05-15 19:12:00,75.1,50.4,29.73,NE,35,6.0,10.0,42,0.00,,,0.00,Wunderground v.1.15,2013-05-16 00:12:00,
2013-05-15 19:16:00,74.9,50.3,29.73,NNE,20,5.0,10.0,42,0.00,,,0.00,Wunderground v.1.15,2013-05-16 00:16:00,
2013-05-15 19:18:00,74.9,50.3,29.73,NNE,26,5.0,10.0,42,0.00,,,0.00,Wunderground v.1.15,2013-05-16 00:18:00,
2013-05-15 19:20:00,74.7,50.7,29.73,NNE,22,5.0,5.0,43,0.00,,,0.00,Wunderground v.1.15,2013-05-16 00:20:00,
2013-05-15 19:22:00,74.6,50.0,29.73,NE,40,5.0,8.0,42,0.00,,,0.00,Wunderground v.1.15,2013-05-16 00:22:00,
2013-05-15 19:24:00,74.5,49.2,29.73,NE,44,5.0,10.0,41,0.00,,,0.00,Wunderground v.1.15,2013-05-16 00:24:00,
2013-05-15 19:26:00,74.4,48.5,29.73,NE,52,5.0,10.0,40,0.00,,,0.00,Wunderground v.1.15,2013-05-16 00:26:00,
2013-05-15 19:27:00,74.4,47.8,29.73,NE,35,5.0,10.0,39,0.00,,,0.00,Wunderground v.1.15,2013-05-16 00:27:00,
2013-05-15 19:36:00,74.1,48.2,29.73,NNE,33,4.0,10.0,40,0.00,,,0.00,Wunderground v.1.15,2013-05-16 00:36:00,
2013-05-15 19:40:00,73.8,48.0,29.73,NE,36,3.0,10.0,40,0.00,,,0.00,Wunderground v.1.15,2013-05-16 00:40:00,
2013-05-15 19:42:00,73.8,48.0,29.73,NE,48,3.0,10.0,40,0.00,,,0.00,Wunderground v.1.15,2013-05-16 00:42:00,
2013-05-15 19:44:00,73.7,48.5,29.73,NE,40,3.0,10.0,41,0.00,,,0.00,Wunderground v.1.15,2013-05-16 00:44:00,
2013-05-15 19:50:00,73.3,48.8,29.73,ENE,65,2.0,10.0,42,0.00,,,0.00,Wunderground v.1.15,2013-05-16 00:50:00,
2013-05-15 19:52:00,73.1,49.3,29.73,ENE,58,2.0,10.0,43,0.00,,,0.00,Wunderground v.1.15,2013-05-16 00:52:00,
2013-05-15 19:54:00,73.0,49.2,29.73,ENE,59,2.0,10.0,43,0.00,,,0.00,Wunderground v.1.15,2013-05-16 00:54:00,
2013-05-15 19:58:00,72.9,49.1,29.73,NE,40,2.0,10.0,43,0.00,,,0.00,Wunderground v.1.15,2013-05-16 00:58:00,
2013-05-15 20:04:00,72.7,48.9,29.73,East,81,2.0,10.0,43,0.00,,,0.00,Wunderground v.1.15,2013-05-16 01:04:00,
2013-05-15 20:06:00,72.6,48.8,29.73,ESE,110,2.0,10.0,43,0.00,,,0.00,Wunderground v.1.15,2013-05-16 01:06:00,
2013-05-15 20:07:00,72.6,48.8,29.73,ENE,75,1.0,10.0,43,0.00,,,0.00,Wunderground v.1.15,2013-05-16 01:07:00,
2013-05-15 20:12:00,72.4,48.0,29.73,ENE,68,1.0,10.0,42,0.00,,,0.00,Wunderground v.1.15,2013-05-16 01:12:00,
2013-05-15 20:18:00,72.2,48.5,29.73,ESE,104,1.0,10.0,43,0.00,,,0.00,Wunderground v.1.15,2013-05-16 01:18:00,
2013-05-15 20:24:00,71.7,48.6,29.73,East,87,0.0,10.0,44,0.00,,,0.00,Wunderground v.1.15,2013-05-16 01:24:00,
2013-05-15 20:28:00,71.5,48.4,29.74,NE,44,1.0,10.0,44,0.00,,,0.00,Wunderground v.1.15,2013-05-16 01:28:00,
2013-05-15 20:29:00,71.3,48.3,29.73,NE,44,1.0,1.0,44,0.00,,,0.00,Wunderground v.1.15,2013-05-16 01:29:00,
2013-05-15 20:34:00,71.0,48.6,29.74,NE,44,1.0,10.0,45,0.00,,,0.00,Wunderground v.1.15,2013-05-16 01:34:00,
2013-05-15 20:36:00,70.9,47.9,29.74,ENE,72,1.0,10.0,44,0.00,,,0.00,Wunderground v.1.15,2013-05-16 01:36:00,
2013-05-15 20:42:00,70.7,49.5,29.74,East,94,1.0,10.0,47,0.00,,,0.00,Wunderground v.1.15,2013-05-16 01:42:00,
2013-05-15 20:46:00,70.2,53.8,29.74,East,94,1.0,10.0,56,0.00,,,0.00,Wunderground v.1.15,2013-05-16 01:46:00,
2013-05-15 20:47:00,69.8,53.4,29.74,East,94,1.0,10.0,56,0.00,,,0.00,Wunderground v.1.15,2013-05-16 01:47:00,
2013-05-15 20:49:00,69.4,52.5,29.74,East,94,1.0,1.0,55,0.00,,,0.00,Wunderground v.1.15,2013-05-16 01:49:00,
2013-05-15 20:52:00,69.0,51.2,29.74,East,94,0.0,10.0,53,0.00,,,0.00,Wunderground v.1.15,2013-05-16 01:52:00,
2013-05-15 20:54:00,68.7,50.9,29.74,East,94,0.0,10.0,53,0.00,,,0.00,Wunderground v.1.15,2013-05-16 01:54:00,
2013-05-15 20:56:00,68.5,49.7,29.74,East,94,0.0,10.0,51,0.00,,,0.00,Wunderground v.1.15,2013-05-16 01:56:00,
2013-05-15 21:00:00,68.1,51.8,29.74,SE,134,0.0,10.0,56,0.00,,,0.00,Wunderground v.1.15,2013-05-16 02:00:00,
2013-05-15 21:02:00,68.0,53.1,29.74,SE,136,0.0,10.0,59,0.00,,,0.00,Wunderground v.1.15,2013-05-16 02:02:00,
2013-05-15 21:06:00,67.6,54.1,29.74,SE,135,1.0,10.0,62,0.00,,,0.00,Wunderground v.1.15,2013-05-16 02:06:00,
2013-05-15 21:09:00,67.2,55.0,29.75,SE,135,1.0,1.0,65,0.00,,,0.00,Wunderground v.1.15,2013-05-16 02:09:00,
2013-05-15 21:11:00,66.8,54.2,29.75,SE,135,0.0,10.0,64,0.00,,,0.00,Wunderground v.1.15,2013-05-16 02:11:00,
2013-05-15 21:14:00,66.5,54.8,29.75,SE,135,0.0,10.0,66,0.00,,,0.00,Wunderground v.1.15,2013-05-16 02:14:00,
2013-05-15 21:22:00,65.6,50.9,29.75,SE,136,0.0,10.0,59,0.00,,,0.00,Wunderground v.1.15,2013-05-16 02:22:00,
2013-05-15 21:24:00,65.5,50.3,29.75,SE,136,0.0,10.0,58,0.00,,,0.00,Wunderground v.1.15,2013-05-16 02:24:00,
2013-05-15 21:29:00,65.0,50.3,29.75,SE,136,0.0,10.0,59,0.00,,,0.00,Wunderground v.1.15,2013-05-16 02:29:00,
2013-05-15 21:31:00,64.8,50.6,29.75,SE,136,0.0,10.0,60,0.00,,,0.00,Wunderground v.1.15,2013-05-16 02:31:00,
2013-05-15 21:36:00,64.5,51.2,29.75,SE,136,0.0,10.0,62,0.00,,,0.00,Wunderground v.1.15,2013-05-16 02:36:00,
2013-05-15 21:40:00,64.1,50.4,29.75,SE,135,0.0,10.0,61,0.00,,,0.00,Wunderground v.1.15,2013-05-16 02:40:00,
2013-05-15 21:46:00,63.8,51.0,29.75,SE,135,0.0,10.0,63,0.00,,,0.00,Wunderground v.1.15,2013-05-16 02:46:00,
2013-05-15 21:48:00,63.7,50.9,29.75,SE,135,0.0,10.0,63,0.00,,,0.00,Wunderground v.1.15,2013-05-16 02:48:00,
2013-05-15 21:53:00,63.5,49.4,29.75,SE,135,0.0,10.0,60,0.00,,,0.00,Wunderground v.1.15,2013-05-16 02:53:00,
2013-05-15 21:56:00,63.3,49.6,29.75,SE,135,0.0,10.0,61,0.00,,,0.00,Wunderground v.1.15,2013-05-16 02:56:00,
2013-05-15 22:02:00,62.8,48.7,29.75,SE,135,0.0,10.0,60,0.00,,,0.00,Wunderground v.1.15,2013-05-16 03:02:00,
2013-05-15 22:04:00,62.6,48.5,29.75,SE,135,0.0,10.0,60,0.00,,,0.00,Wunderground v.1.15,2013-05-16 03:04:00,
2013-05-15 22:06:00,62.6,48.5,29.75,SE,135,0.0,10.0,60,0.00,,,0.00,Wunderground v.1.15,2013-05-16 03:06:00,
2013-05-15 22:11:00,62.3,48.7,29.75,SE,135,0.0,10.0,61,0.00,,,0.00,Wunderground v.1.15,2013-05-16 03:11:00,
2013-05-15 22:14:00,62.2,48.1,29.75,SE,135,0.0,10.0,60,0.00,,,0.00,Wunderground v.1.15,2013-05-16 03:14:00,
2013-05-15 22:16:00,62.2,48.1,29.75,SE,135,0.0,10.0,60,0.00,,,0.00,Wunderground v.1.15,2013-05-16 03:16:00,
2013-05-15 22:18:00,62.3,48.2,29.75,SE,135,0.0,10.0,60,0.00,,,0.00,Wunderground v.1.15,2013-05-16 03:18:00,
2013-05-15 22:20:00,62.2,48.1,29.75,SE,135,0.0,10.0,60,0.00,,,0.00,Wunderground v.1.15,2013-05-16 03:20:00,
2013-05-15 22:22:00,62.1,48.0,29.75,SE,135,0.0,10.0,60,0.00,,,0.00,Wunderground v.1.15,2013-05-16 03:22:00,
2013-05-15 22:24:00,62.0,48.8,29.75,SE,135,0.0,10.0,62,0.00,,,0.00,Wunderground v.1.15,2013-05-16 03:24:00,
2013-05-15 22:30:00,61.4,48.7,29.75,SE,135,0.0,10.0,63,0.00,,,0.00,Wunderground v.1.15,2013-05-16 03:30:00,
2013-05-15 22:33:00,61.2,49.7,29.75,SE,135,0.0,10.0,66,0.00,,,0.00,Wunderground v.1.15,2013-05-16 03:33:00,
2013-05-15 22:38:00,61.1,49.7,29.75,SE,135,0.0,10.0,66,0.00,,,0.00,Wunderground v.1.15,2013-05-16 03:38:00,
2013-05-15 22:40:00,61.1,49.7,29.75,SE,135,0.0,10.0,66,0.00,,,0.00,Wunderground v.1.15,2013-05-16 03:40:00,
2013-05-15 22:42:00,61.0,48.7,29.75,SE,135,0.0,10.0,64,0.00,,,0.00,Wunderground v.1.15,2013-05-16 03:42:00,
2013-05-15 22:44:00,60.9,48.2,29.75,SE,135,0.0,10.0,63,0.00,,,0.00,Wunderground v.1.15,2013-05-16 03:44:00,
2013-05-15 22:46:00,60.8,48.1,29.75,SE,135,0.0,10.0,63,0.00,,,0.00,Wunderground v.1.15,2013-05-16 03:46:00,
2013-05-15 22:50:00,60.6,49.2,29.75,SE,135,0.0,10.0,66,0.00,,,0.00,Wunderground v.1.15,2013-05-16 03:50:00,
2013-05-15 22:52:00,60.5,49.9,29.75,SE,135,0.0,10.0,68,0.00,,,0.00,Wunderground v.1.15,2013-05-16 03:52:00,
2013-05-15 22:53:00,60.4,50.2,29.75,SE,135,0.0,10.0,69,0.00,,,0.00,Wunderground v.1.15,2013-05-16 03:53:00,
2013-05-15 22:58:00,60.3,51.6,29.75,SE,136,0.0,10.0,73,0.00,,,0.00,Wunderground v.1.15,2013-05-16 03:58:00,
2013-05-15 23:02:00,60.2,51.5,29.75,SE,135,0.0,10.0,73,0.00,,,0.00,Wunderground v.1.15,2013-05-16 04:02:00,
2013-05-15 23:04:00,60.1,51.4,29.75,SE,135,0.0,10.0,73,0.00,,,0.00,Wunderground v.1.15,2013-05-16 04:04:00,
2013-05-15 23:06:00,60.0,51.3,29.75,SE,135,0.0,10.0,73,0.00,,,0.00,Wunderground v.1.15,2013-05-16 04:06:00,
2013-05-15 23:10:00,59.6,51.3,29.75,SE,135,0.0,10.0,74,0.00,,,0.00,Wunderground v.1.15,2013-05-16 04:10:00,
2013-05-15 23:12:00,59.5,51.2,29.75,SE,135,0.0,10.0,74,0.00,,,0.00,Wunderground v.1.15,2013-05-16 04:12:00,
2013-05-15 23:15:00,59.4,51.1,29.75,SE,135,0.0,10.0,74,0.00,,,0.00,Wunderground v.1.15,2013-05-16 04:15:00,
2013-05-15 23:17:00,59.5,51.2,29.75,SE,136,0.0,10.0,74,0.00,,,0.00,Wunderground v.1.15,2013-05-16 04:17:00,
2013-05-15 23:20:00,59.7,51.8,29.75,SE,136,0.0,10.0,75,0.00,,,0.00,Wunderground v.1.15,2013-05-16 04:20:00,
2013-05-15 23:22:00,59.7,51.4,29.76,SE,135,0.0,10.0,74,0.00,,,0.00,Wunderground v.1.15,2013-05-16 04:22:00,
2013-05-15 23:24:00,59.7,50.7,29.76,SE,136,0.0,10.0,72,0.00,,,0.00,Wunderground v.1.15,2013-05-16 04:24:00,
2013-05-15 23:28:00,59.6,50.6,29.76,SE,135,0.0,10.0,72,0.00,,,0.00,Wunderground v.1.15,2013-05-16 04:28:00,
2013-05-15 23:30:00,59.4,50.4,29.76,SE,136,0.0,10.0,72,0.00,,,0.00,Wunderground v.1.15,2013-05-16 04:30:00,
2013-05-15 23:32:00,59.2,49.8,29.76,SE,136,0.0,10.0,71,0.00,,,0.00,Wunderground v.1.15,2013-05-16 04:32:00,
2013-05-15 23:35:00,58.9,49.1,29.76,SE,135,0.0,10.0,70,0.00,,,0.00,Wunderground v.1.15,2013-05-16 04:35:00,
2013-05-15 23:40:00,58.7,48.2,29.76,SE,136,0.0,10.0,68,0.00,,,0.00,Wunderground v.1.15,2013-05-16 04:40:00,
2013-05-15 23:42:00,58.6,47.7,29.76,SE,135,0.0,10.0,67,0.00,,,0.00,Wunderground v.1.15,2013-05-16 04:42:00,
2013-05-15 23:44:00,58.5,47.2,29.76,SE,135,0.0,10.0,66,0.00,,,0.00,Wunderground v.1.15,2013-05-16 04:44:00,
2013-05-15 23:46:00,58.5,47.2,29.76,SE,135,0.0,10.0,66,0.00,,,0.00,Wunderground v.1.15,2013-05-16 04:46:00,
2013-05-15 23:50:00,59.2,47.0,29.76,SE,136,0.0,10.0,64,0.00,,,0.00,Wunderground v.1.15,2013-05-16 04:50:00,
2013-05-15 23:52:00,59.8,47.6,29.76,SE,135,0.0,10.0,64,0.00,,,0.00,Wunderground v.1.15,2013-05-16 04:52:00,
2013-05-15 23:54:00,60.4,47.7,29.76,SE,135,0.0,10.0,63,0.00,,,0.00,Wunderground v.1.15,2013-05-16 04:54:00,
2013-05-15 23:57:00,60.9,47.4,29.77,SE,135,0.0,10.0,61,0.00,,,0.00,Wunderground v.1.15,2013-05-16 04:57:00,